[[{"header":{"parameterUnit":"m.s-1","parameterCategory":1,"la1":30.2992,"la2":30.254,"lo1":-89.0895,"lo2":-89.0443,"dy":0.0025,"dx":0.0025,"nx":19,"ny":19,"refTime":"2026-03-11T09:00:00:Z","depth":0,"parameterNumber":2,"parameterNumberName":"U-component_of_WINDS"},"data":[0,0,0,-1.9865,-1.9866,-1.9928,-1.9928,-2.0015,-2.0016,0,0,0,0,0,0,0,0,0,0,0,-1.9851,-1.9852,-1.9865,-1.9866,-1.9928,-1.9928,-2.0015,-2.0016,0,0,0,0,0,0,0,0,0,0,0,-1.9851,-1.9852,-1.9853,-1.9867,-1.9928,-1.9928,-2.0015,-1.9965,0,0,0,0,0,0,0,0,0,0,-1.9904,-1.9896,-1.9852,-1.9853,-1.9867,-1.9928,-1.9928,-1.9963,-1.9968,-1.999,0,-2.0011,0,-2.0015,-2.0022,-2.0022,0,0,0,-1.9863,-1.9892,-1.9904,-1.9853,-1.9868,-1.9928,-1.9899,-1.9966,-1.9972,-1.9998,-2.0012,-2.0015,-2.0016,-2.0023,-2.0023,-2.0161,-2.0162,0,0,-1.9859,-1.9865,-1.9899,-1.9908,-1.9899,-1.9897,-1.9901,-1.9969,-1.9986,-2.0012,-2.0017,-2.0018,-2.0023,-2.0024,-2.016,-2.0161,0,0,0,-1.9852,-1.9863,-1.9873,-1.9905,-1.9915,-1.9899,-1.9904,-1.9983,-1.9986,-2.0018,-2.0019,-2.0024,-2.0025,-2.0159,-2.0161,-2.0207,0,0,0,-1.985,-1.9858,-1.9872,-1.9876,-1.9914,-1.995,-1.9916,-1.9981,-1.9988,-2.0018,-2.0024,-2.0026,-2.0158,-2.016,-2.0204,-2.0228,0,0,0,-1.9846,-1.9858,-1.9868,-1.9876,-1.9903,-1.9949,-1.9955,-1.9982,-1.9989,-2.0022,-2.0026,-2.0158,-2.016,-2.0201,-2.0223,-2.0267,0,0,0,-1.9843,-1.9909,-1.9869,-1.9943,-1.9903,-1.9976,-1.9955,-2.001,-2.0044,-2.0024,-2.0159,-2.016,-2.02,-2.0221,-2.0264,-2.0305,-2.0322,0,0,-1.9929,-1.9919,-1.9962,-1.9929,-2.0011,-1.9967,-2.0056,-2.0081,-2.0079,-2.0134,-2.0137,-2.0205,-2.0223,-2.0266,-2.0416,-2.0429,0,0,0,-1.9992,-2.0023,-2.0043,-2.0076,-2.0097,-2.0117,-2.0128,-2.0137,-2.0183,-2.0108,-2.0231,-2.0242,-2.0267,-2.0286,-2.0298,-2.0319,-2.0169,-2.0169,-2.0169,-2.0123,-2.0116,-2.0187,-2.0187,-2.0219,-2.0229,-2.0255,-2.0269,-2.0253,-2.0282,-2.0299,-2.039,-2.0413,-2.0422,-2.0444,-2.0319,-2.0319,-2.0319,-2.0319,-2.025,-2.0293,-2.0269,-2.0329,-2.0322,-2.0372,-2.0384,-2.037,-2.0416,-2.0377,-2.0399,-2.0358,-2.0437,-2.0456,-2.0322,-2.0322,-2.0321,-2.0321,-2.0321,-2.0337,-2.0356,-2.0366,-2.0412,-2.0448,-2.0445,-2.049,-2.048,-2.0472,-2.0493,-2.051,-2.0509,-2.0508,-2.0502,-2.0502,-2.0502,-2.0503,-2.0503,-2.0503,-2.0424,-2.0433,-2.0472,-2.0499,-2.0518,-2.0542,-2.0552,-2.057,-2.0589,-2.0578,-2.0579,-2.056,-2.0446,-2.0418,-2.0508,-2.0507,-2.0506,-2.0506,-2.0506,-2.0557,-2.0525,-2.0586,-2.0605,-2.0635,-2.0671,-2.0658,-2.0696,-2.071,-2.0732,-2.0708,-2.0625,-2.0615,-2.0605,-2.0582,-2.0709,-2.0709,-2.0709,-2.0709,-2.0632,-2.0625,-2.0684,-2.0715,-2.0745,-2.0739,-2.0806,-2.0814,-2.0817,-2.0825,-2.0804,-2.0773,-2.0763,-2.0758,-2.0746,-2.0724,-2.0884,-2.0884,-2.0885,-2.0714,-2.0709,-2.0769,-2.0772,-2.0794,-2.0813,-2.0877,-2.0913,-2.0909,-2.0892,-2.0831,-2.0823,-2.0772,-2.0755,-2.0738,-2.0719,-2.0679,0,0]},{"header":{"parameterUnit":"m.s-1","parameterCategory":1,"la1":30.2992,"la2":30.254,"lo1":-89.0895,"lo2":-89.0443,"dy":0.0025,"dx":0.0025,"nx":19,"ny":19,"refTime":"2026-03-11T09:00:00:Z","depth":0,"parameterNumber":3,"parameterNumberName":"V-component_of_WINDS"},"data":[0,0,0,-7.7256,-7.7259,-7.7388,-7.7388,-7.7563,-7.7564,0,0,0,0,0,0,0,0,0,0,0,-7.7227,-7.7228,-7.7256,-7.7259,-7.7388,-7.7388,-7.7562,-7.7564,0,0,0,0,0,0,0,0,0,0,0,-7.7226,-7.7228,-7.723,-7.726,-7.7388,-7.7388,-7.7562,-7.7461,0,0,0,0,0,0,0,0,0,0,-7.7334,-7.7316,-7.7228,-7.723,-7.7261,-7.7387,-7.7388,-7.7456,-7.7467,-7.751,0,-7.7552,0,-7.7562,-7.7577,-7.7578,0,0,0,-7.7252,-7.7307,-7.7334,-7.723,-7.7262,-7.7387,-7.7328,-7.7462,-7.7475,-7.7525,-7.7555,-7.7561,-7.7565,-7.7578,-7.7579,-7.7858,-7.786,0,0,-7.7245,-7.7254,-7.7325,-7.7343,-7.7327,-7.7324,-7.7332,-7.7469,-7.7501,-7.7555,-7.7565,-7.7567,-7.7579,-7.7581,-7.7857,-7.7859,0,0,0,-7.723,-7.7249,-7.7273,-7.7336,-7.7358,-7.7327,-7.7337,-7.7495,-7.7502,-7.7567,-7.7569,-7.7581,-7.7583,-7.7855,-7.7858,-7.7951,0,0,0,-7.7225,-7.724,-7.727,-7.7277,-7.7356,-7.7429,-7.736,-7.7493,-7.7508,-7.7569,-7.7581,-7.7585,-7.7853,-7.7856,-7.7944,-7.7993,0,0,0,-7.7215,-7.7239,-7.7261,-7.7277,-7.7333,-7.7427,-7.7441,-7.7496,-7.751,-7.7578,-7.7585,-7.7852,-7.7856,-7.7939,-7.7983,-7.8071,0,0,0,-7.7207,-7.7339,-7.7263,-7.7411,-7.7332,-7.7484,-7.744,-7.7552,-7.7621,-7.7582,-7.7853,-7.7857,-7.7937,-7.7978,-7.8065,-7.8148,-7.8183,0,0,-7.7378,-7.736,-7.7446,-7.7382,-7.7551,-7.7463,-7.7645,-7.7697,-7.7693,-7.7803,-7.781,-7.7946,-7.7983,-7.807,-7.8374,-7.8402,0,0,0,-7.7504,-7.7567,-7.7609,-7.7677,-7.7723,-7.7766,-7.7791,-7.781,-7.7904,-7.7752,-7.8001,-7.8022,-7.8073,-7.8112,-7.8136,-7.8179,-7.7876,-7.7875,-7.7875,-7.7758,-7.775,-7.7894,-7.7902,-7.7968,-7.7994,-7.8046,-7.8077,-7.8045,-7.8104,-7.8137,-7.8323,-7.8369,-7.8387,-7.8433,-7.8179,-7.8179,-7.8179,-7.818,-7.801,-7.8098,-7.8058,-7.8183,-7.8172,-7.8276,-7.8306,-7.8281,-7.8375,-7.8297,-7.8341,-7.8258,-7.8418,-7.8458,-7.8187,-7.8185,-7.8185,-7.8184,-7.8183,-7.8177,-7.8218,-7.8243,-7.8343,-7.842,-7.8421,-7.8515,-7.8501,-7.8487,-7.8531,-7.8565,-7.8564,-7.8562,-7.8548,-7.8549,-7.855,-7.855,-7.8551,-7.8551,-7.8342,-7.8366,-7.8449,-7.8511,-7.8555,-7.8609,-7.8638,-7.8679,-7.8721,-7.8703,-7.8703,-7.8667,-7.8436,-7.8379,-7.8561,-7.8559,-7.8558,-7.8557,-7.8556,-7.8602,-7.8542,-7.867,-7.8714,-7.8787,-7.8865,-7.8847,-7.8932,-7.8964,-7.9011,-7.8966,-7.8797,-7.8776,-7.8757,-7.871,-7.8967,-7.8967,-7.8967,-7.8967,-7.8745,-7.8734,-7.8863,-7.8935,-7.9002,-7.9,-7.9143,-7.9167,-7.9181,-7.92,-7.916,-7.9096,-7.9077,-7.9067,-7.9042,-7.8998,-7.9322,-7.9322,-7.9323,-7.8906,-7.8901,-7.9028,-7.9044,-7.9101,-7.9149,-7.9284,-7.9366,-7.9369,-7.9337,-7.9215,-7.92,-7.9096,-7.9063,-7.9028,-7.8989,-7.8907,0,0]}]]